Time,TemperatureF,DewpointF,PressureIn,WindDirection,WindDirectionDegrees,WindSpeedMPH,WindSpeedGustMPH,Humidity,HourlyPrecipIn,Conditions,Clouds,dailyrainin,SoftwareType,DateUTC
2013-06-18 00:00:00,48.8,43.2,22.73,NNW,329,0.0,21.0,81,0.00,,,0.00,Wunderground v.1.15,2013-06-18 06:00:00,
2013-06-18 00:02:00,48.6,43.0,22.73,NNW,329,0.0,21.0,81,0.00,,,0.00,Wunderground v.1.15,2013-06-18 06:02:00,
2013-06-18 00:06:00,48.4,43.2,22.73,NNW,329,0.0,21.0,82,0.00,,,0.00,Wunderground v.1.15,2013-06-18 06:06:00,
2013-06-18 00:08:00,48.3,42.7,22.73,WSW,247,0.0,21.0,81,0.00,,,0.00,Wunderground v.1.15,2013-06-18 06:08:00,
2013-06-18 00:12:00,48.1,42.9,22.73,WSW,247,0.0,21.0,82,0.00,,,0.00,Wunderground v.1.15,2013-06-18 06:12:00,
2013-06-18 00:14:00,48.0,43.1,22.73,WSW,247,0.0,21.0,83,0.00,,,0.00,Wunderground v.1.15,2013-06-18 06:14:00,
2013-06-18 00:18:00,48.0,43.4,22.72,WSW,247,0.0,21.0,84,0.00,,,0.00,Wunderground v.1.15,2013-06-18 06:18:00,
2013-06-18 00:20:00,48.0,43.4,22.73,WSW,248,0.0,21.0,84,0.00,,,0.00,Wunderground v.1.15,2013-06-18 06:20:00,
2013-06-18 00:24:00,48.0,43.1,22.73,WSW,249,0.0,21.0,83,0.00,,,0.00,Wunderground v.1.15,2013-06-18 06:24:00,
2013-06-18 00:26:00,48.0,43.4,22.73,WSW,247,0.0,21.0,84,0.00,,,0.00,Wunderground v.1.15,2013-06-18 06:26:00,
2013-06-18 00:28:00,47.9,42.7,22.73,WSW,249,0.0,21.0,82,0.00,,,0.00,Wunderground v.1.15,2013-06-18 06:28:00,
2013-06-18 00:30:00,47.7,42.8,22.73,WSW,248,0.0,21.0,83,0.00,,,0.00,Wunderground v.1.15,2013-06-18 06:30:00,
2013-06-18 00:32:00,47.7,42.8,22.73,WSW,248,0.0,21.0,83,0.00,,,0.00,Wunderground v.1.15,2013-06-18 06:32:00,
2013-06-18 00:34:00,47.6,43.0,22.73,WSW,248,0.0,21.0,84,0.00,,,0.00,Wunderground v.1.15,2013-06-18 06:34:00,
2013-06-18 00:36:00,47.6,43.0,22.73,WSW,248,0.0,21.0,84,0.00,,,0.00,Wunderground v.1.15,2013-06-18 06:36:00,
2013-06-18 00:38:00,47.6,43.0,22.73,WSW,248,0.0,21.0,84,0.00,,,0.00,Wunderground v.1.15,2013-06-18 06:38:00,
2013-06-18 00:44:00,47.7,43.1,22.73,WSW,248,0.0,21.0,84,0.00,,,0.00,Wunderground v.1.15,2013-06-18 06:44:00,
2013-06-18 00:46:00,47.6,43.0,22.73,WSW,248,0.0,21.0,84,0.00,,,0.00,Wunderground v.1.15,2013-06-18 06:46:00,
2013-06-18 00:50:00,47.5,42.9,22.73,NW,316,0.0,21.0,84,0.00,,,0.00,Wunderground v.1.15,2013-06-18 06:50:00,
2013-06-18 00:52:00,47.5,42.9,22.73,NW,326,0.0,21.0,84,0.00,,,0.00,Wunderground v.1.15,2013-06-18 06:52:00,
2013-06-18 00:56:00,47.5,42.9,22.73,WSW,257,0.0,21.0,84,0.00,,,0.00,Wunderground v.1.15,2013-06-18 06:56:00,
2013-06-18 00:58:00,47.5,42.9,22.73,WSW,257,0.0,21.0,84,0.00,,,0.00,Wunderground v.1.15,2013-06-18 06:58:00,
2013-06-18 01:02:00,47.3,42.7,22.72,WSW,257,0.0,21.0,84,0.00,,,0.00,Wunderground v.1.15,2013-06-18 07:02:00,
2013-06-18 01:04:00,47.3,42.7,22.72,WSW,257,0.0,21.0,84,0.00,,,0.00,Wunderground v.1.15,2013-06-18 07:04:00,
2013-06-18 01:06:00,47.2,42.6,22.72,West,259,0.0,21.0,84,0.00,,,0.00,Wunderground v.1.15,2013-06-18 07:06:00,
2013-06-18 01:12:00,47.0,42.4,22.72,WSW,257,0.0,21.0,84,0.00,,,0.00,Wunderground v.1.15,2013-06-18 07:12:00,
2013-06-18 01:14:00,46.9,42.3,22.72,WSW,257,0.0,21.0,84,0.00,,,0.00,Wunderground v.1.15,2013-06-18 07:14:00,
2013-06-18 01:16:00,46.8,42.5,22.72,WSW,257,0.0,21.0,85,0.00,,,0.00,Wunderground v.1.15,2013-06-18 07:16:00,
2013-06-18 01:18:00,46.7,42.4,22.72,WSW,257,0.0,21.0,85,0.00,,,0.00,Wunderground v.1.15,2013-06-18 07:18:00,
2013-06-18 01:22:00,46.4,42.1,22.72,WSW,257,0.0,21.0,85,0.00,,,0.00,Wunderground v.1.15,2013-06-18 07:22:00,
2013-06-18 01:24:00,46.2,41.9,22.72,WSW,257,0.0,21.0,85,0.00,,,0.00,Wunderground v.1.15,2013-06-18 07:24:00,
2013-06-18 01:26:00,46.1,41.8,22.72,WSW,257,0.0,21.0,85,0.00,,,0.00,Wunderground v.1.15,2013-06-18 07:26:00,
2013-06-18 01:28:00,46.0,41.7,22.72,East,79,0.0,21.0,85,0.00,,,0.00,Wunderground v.1.15,2013-06-18 07:28:00,
2013-06-18 01:30:00,45.9,41.9,22.72,ENE,78,0.0,21.0,86,0.00,,,0.00,Wunderground v.1.15,2013-06-18 07:30:00,
2013-06-18 01:32:00,45.9,41.9,22.73,NNE,23,0.0,21.0,86,0.00,,,0.00,Wunderground v.1.15,2013-06-18 07:32:00,
2013-06-18 01:34:00,45.8,41.9,22.73,NNE,23,0.0,21.0,86,0.00,,,0.00,Wunderground v.1.15,2013-06-18 07:34:00,
2013-06-18 01:36:00,45.8,41.9,22.73,NNE,23,0.0,21.0,86,0.00,,,0.00,Wunderground v.1.15,2013-06-18 07:36:00,
2013-06-18 01:40:00,45.8,42.2,22.73,ENE,67,0.0,21.0,87,0.00,,,0.00,Wunderground v.1.15,2013-06-18 07:40:00,
2013-06-18 01:42:00,45.9,42.2,22.73,ENE,63,0.0,21.0,87,0.00,,,0.00,Wunderground v.1.15,2013-06-18 07:42:00,
2013-06-18 01:46:00,45.9,41.9,22.73,ENE,67,0.0,21.0,86,0.00,,,0.00,Wunderground v.1.15,2013-06-18 07:46:00,
2013-06-18 01:48:00,45.8,41.9,22.73,ENE,67,0.0,21.0,86,0.00,,,0.00,Wunderground v.1.15,2013-06-18 07:48:00,
2013-06-18 01:50:00,45.6,41.4,22.73,ENE,67,0.0,21.0,85,0.00,,,0.00,Wunderground v.1.15,2013-06-18 07:50:00,
2013-06-18 01:54:00,45.4,41.5,22.73,ENE,67,0.0,21.0,86,0.00,,,0.00,Wunderground v.1.15,2013-06-18 07:54:00,
2013-06-18 01:56:00,45.4,41.8,22.73,NNW,339,0.0,21.0,87,0.00,,,0.00,Wunderground v.1.15,2013-06-18 07:56:00,
2013-06-18 01:58:00,45.4,41.5,22.73,NNW,338,0.0,21.0,86,0.00,,,0.00,Wunderground v.1.15,2013-06-18 07:58:00,
2013-06-18 02:04:00,45.4,41.8,22.73,East,84,1.0,21.0,87,0.00,,,0.00,Wunderground v.1.15,2013-06-18 08:04:00,
2013-06-18 02:06:00,45.3,41.4,22.73,East,84,1.0,21.0,86,0.00,,,0.00,Wunderground v.1.15,2013-06-18 08:06:00,
2013-06-18 02:08:00,45.2,41.3,22.73,East,79,1.0,21.0,86,0.00,,,0.00,Wunderground v.1.15,2013-06-18 08:08:00,
2013-06-18 02:10:00,45.1,41.2,22.73,East,79,1.0,21.0,86,0.00,,,0.00,Wunderground v.1.15,2013-06-18 08:10:00,
2013-06-18 02:12:00,45.0,41.4,22.73,East,79,1.0,21.0,87,0.00,,,0.00,Wunderground v.1.15,2013-06-18 08:12:00,
2013-06-18 02:14:00,45.0,41.4,22.73,East,79,1.0,21.0,87,0.00,,,0.00,Wunderground v.1.15,2013-06-18 08:14:00,
2013-06-18 02:20:00,44.9,41.0,22.73,East,79,1.0,21.0,86,0.00,,,0.00,Wunderground v.1.15,2013-06-18 08:20:00,
2013-06-18 02:22:00,44.8,40.9,22.73,East,79,1.0,1.0,86,0.00,,,0.00,Wunderground v.1.15,2013-06-18 08:22:00,
2013-06-18 02:24:00,44.7,41.1,22.73,East,79,1.0,21.0,87,0.00,,,0.00,Wunderground v.1.15,2013-06-18 08:24:00,
2013-06-18 02:28:00,44.6,41.0,22.73,East,79,0.0,21.0,87,0.00,,,0.00,Wunderground v.1.15,2013-06-18 08:28:00,
2013-06-18 02:30:00,44.5,41.2,22.73,East,79,0.0,21.0,88,0.00,,,0.00,Wunderground v.1.15,2013-06-18 08:30:00,
2013-06-18 02:34:00,44.5,41.2,22.73,East,79,0.0,21.0,88,0.00,,,0.00,Wunderground v.1.15,2013-06-18 08:34:00,
2013-06-18 02:36:00,44.4,41.1,22.73,East,79,0.0,21.0,88,0.00,,,0.00,Wunderground v.1.15,2013-06-18 08:36:00,
2013-06-18 02:38:00,44.3,40.7,22.73,East,79,0.0,21.0,87,0.00,,,0.00,Wunderground v.1.15,2013-06-18 08:38:00,
2013-06-18 02:40:00,44.2,40.9,22.73,NNW,329,0.0,21.0,88,0.00,,,0.00,Wunderground v.1.15,2013-06-18 08:40:00,
2013-06-18 02:44:00,44.1,40.8,22.73,NNW,329,0.0,21.0,88,0.00,,,0.00,Wunderground v.1.15,2013-06-18 08:44:00,
2013-06-18 02:46:00,44.0,40.7,22.72,NNW,329,0.0,21.0,88,0.00,,,0.00,Wunderground v.1.15,2013-06-18 08:46:00,
2013-06-18 02:50:00,44.2,41.2,22.72,NNW,329,0.0,21.0,89,0.00,,,0.00,Wunderground v.1.15,2013-06-18 08:50:00,
2013-06-18 02:52:00,44.3,41.0,22.72,NNW,329,0.0,21.0,88,0.00,,,0.00,Wunderground v.1.15,2013-06-18 08:52:00,
2013-06-18 02:54:00,44.3,41.0,22.72,NNW,329,0.0,21.0,88,0.00,,,0.00,Wunderground v.1.15,2013-06-18 08:54:00,
2013-06-18 02:56:00,44.3,41.3,22.72,NNW,329,0.0,21.0,89,0.00,,,0.00,Wunderground v.1.15,2013-06-18 08:56:00,
2013-06-18 02:58:00,44.3,41.3,22.72,NNW,329,0.0,21.0,89,0.00,,,0.00,Wunderground v.1.15,2013-06-18 08:58:00,
2013-06-18 03:02:00,44.2,40.9,22.72,NNW,329,0.0,21.0,88,0.00,,,0.00,Wunderground v.1.15,2013-06-18 09:02:00,
2013-06-18 03:04:00,44.2,40.9,22.72,NNW,329,0.0,21.0,88,0.00,,,0.00,Wunderground v.1.15,2013-06-18 09:04:00,
2013-06-18 03:08:00,44.3,41.3,22.72,NNW,329,0.0,21.0,89,0.00,,,0.00,Wunderground v.1.15,2013-06-18 09:08:00,
2013-06-18 03:10:00,44.4,41.1,22.72,NW,323,0.0,21.0,88,0.00,,,0.00,Wunderground v.1.15,2013-06-18 09:10:00,
2013-06-18 03:14:00,44.6,41.3,22.72,NNW,328,0.0,21.0,88,0.00,,,0.00,Wunderground v.1.15,2013-06-18 09:14:00,
2013-06-18 03:16:00,44.7,41.4,22.72,NNW,328,0.0,21.0,88,0.00,,,0.00,Wunderground v.1.15,2013-06-18 09:16:00,
2013-06-18 03:18:00,44.7,41.4,22.72,NNW,328,0.0,21.0,88,0.00,,,0.00,Wunderground v.1.15,2013-06-18 09:18:00,
2013-06-18 03:20:00,44.7,41.4,22.72,NNW,328,0.0,21.0,88,0.00,,,0.00,Wunderground v.1.15,2013-06-18 09:20:00,
2013-06-18 03:22:00,44.7,41.4,22.72,NNW,327,0.0,21.0,88,0.00,,,0.00,Wunderground v.1.15,2013-06-18 09:22:00,
2013-06-18 03:26:00,44.5,41.2,22.72,NNW,328,0.0,21.0,88,0.00,,,0.00,Wunderground v.1.15,2013-06-18 09:26:00,
2013-06-18 03:28:00,44.5,41.2,22.72,NNW,327,0.0,21.0,88,0.00,,,0.00,Wunderground v.1.15,2013-06-18 09:28:00,
2013-06-18 03:32:00,44.2,40.6,22.71,NNW,328,0.0,21.0,87,0.00,,,0.00,Wunderground v.1.15,2013-06-18 09:32:00,
2013-06-18 03:34:00,44.1,40.5,22.71,NNW,328,0.0,21.0,87,0.00,,,0.00,Wunderground v.1.15,2013-06-18 09:34:00,
2013-06-18 03:38:00,43.8,40.5,22.71,NNW,327,0.0,21.0,88,0.00,,,0.00,Wunderground v.1.15,2013-06-18 09:38:00,
2013-06-18 03:40:00,43.6,40.3,22.71,NNW,327,0.0,21.0,88,0.00,,,0.00,Wunderground v.1.15,2013-06-18 09:40:00,
2013-06-18 03:44:00,43.3,40.3,22.71,NNW,327,0.0,21.0,89,0.00,,,0.00,Wunderground v.1.15,2013-06-18 09:44:00,
2013-06-18 03:46:00,43.3,40.3,22.71,NNW,327,0.0,21.0,89,0.00,,,0.00,Wunderground v.1.15,2013-06-18 09:46:00,
2013-06-18 03:48:00,43.3,40.6,22.71,NNW,327,0.0,21.0,90,0.00,,,0.00,Wunderground v.1.15,2013-06-18 09:48:00,
2013-06-18 03:54:00,43.3,40.6,22.71,NNW,327,0.0,21.0,90,0.00,,,0.00,Wunderground v.1.15,2013-06-18 09:54:00,
2013-06-18 03:56:00,43.3,40.6,22.71,NNW,328,0.0,21.0,90,0.00,,,0.00,Wunderground v.1.15,2013-06-18 09:56:00,
2013-06-18 04:00:00,43.2,40.5,22.71,NNW,328,0.0,21.0,90,0.00,,,0.00,Wunderground v.1.15,2013-06-18 10:00:00,
2013-06-18 04:02:00,43.2,40.5,22.70,NNW,327,0.0,21.0,90,0.00,,,0.00,Wunderground v.1.15,2013-06-18 10:02:00,
2013-06-18 04:08:00,43.2,40.2,22.70,NNW,327,0.0,21.0,89,0.00,,,0.00,Wunderground v.1.15,2013-06-18 10:08:00,
2013-06-18 04:10:00,43.1,40.1,22.70,NNW,327,0.0,21.0,89,0.00,,,0.00,Wunderground v.1.15,2013-06-18 10:10:00,
2013-06-18 04:14:00,43.0,40.0,22.70,NNW,327,0.0,21.0,89,0.00,,,0.00,Wunderground v.1.15,2013-06-18 10:14:00,
2013-06-18 04:16:00,42.9,39.9,22.70,NNW,327,0.0,21.0,89,0.00,,,0.00,Wunderground v.1.15,2013-06-18 10:16:00,
2013-06-18 04:20:00,43.0,40.3,22.70,ENE,67,0.0,21.0,90,0.00,,,0.00,Wunderground v.1.15,2013-06-18 10:20:00,
2013-06-18 04:22:00,43.1,40.4,22.70,North,9,1.0,21.0,90,0.00,,,0.00,Wunderground v.1.15,2013-06-18 10:22:00,
2013-06-18 04:26:00,43.4,40.7,22.70,North,358,1.0,21.0,90,0.00,,,0.00,Wunderground v.1.15,2013-06-18 10:26:00,
2013-06-18 04:28:00,43.6,40.9,22.70,North,358,2.0,21.0,90,0.00,,,0.00,Wunderground v.1.15,2013-06-18 10:28:00,
2013-06-18 04:30:00,43.7,41.0,22.70,North,358,2.0,21.0,90,0.00,,,0.00,Wunderground v.1.15,2013-06-18 10:30:00,
2013-06-18 04:36:00,43.7,40.4,22.70,ENE,58,1.0,21.0,88,0.00,,,0.00,Wunderground v.1.15,2013-06-18 10:36:00,
2013-06-18 04:38:00,43.5,40.2,22.70,ENE,58,0.0,21.0,88,0.00,,,0.00,Wunderground v.1.15,2013-06-18 10:38:00,
2013-06-18 04:40:00,43.4,40.1,22.70,ENE,58,0.0,21.0,88,0.00,,,0.00,Wunderground v.1.15,2013-06-18 10:40:00,
2013-06-18 04:42:00,43.2,40.2,22.70,WNW,290,0.0,21.0,89,0.00,,,0.00,Wunderground v.1.15,2013-06-18 10:42:00,
2013-06-18 04:44:00,43.1,40.1,22.70,WNW,290,0.0,21.0,89,0.00,,,0.00,Wunderground v.1.15,2013-06-18 10:44:00,
2013-06-18 04:46:00,43.0,40.0,22.70,WNW,289,0.0,21.0,89,0.00,,,0.00,Wunderground v.1.15,2013-06-18 10:46:00,
2013-06-18 04:48:00,42.9,39.9,22.70,WNW,289,0.0,21.0,89,0.00,,,0.00,Wunderground v.1.15,2013-06-18 10:48:00,
2013-06-18 04:52:00,42.8,40.1,22.70,WNW,289,0.0,21.0,90,0.00,,,0.00,Wunderground v.1.15,2013-06-18 10:52:00,
2013-06-18 04:54:00,42.8,40.1,22.70,WNW,290,0.0,21.0,90,0.00,,,0.00,Wunderground v.1.15,2013-06-18 10:54:00,
2013-06-18 04:56:00,42.8,40.1,22.70,WNW,290,0.0,21.0,90,0.00,,,0.00,Wunderground v.1.15,2013-06-18 10:56:00,
2013-06-18 04:58:00,42.8,40.1,22.70,WNW,290,0.0,21.0,90,0.00,,,0.00,Wunderground v.1.15,2013-06-18 10:58:00,
2013-06-18 05:00:00,42.8,40.1,22.70,WNW,290,0.0,21.0,90,0.00,,,0.00,Wunderground v.1.15,2013-06-18 11:00:00,
2013-06-18 05:02:00,42.7,40.0,22.70,WNW,290,0.0,21.0,90,0.00,,,0.00,Wunderground v.1.15,2013-06-18 11:02:00,
2013-06-18 05:04:00,42.6,39.9,22.70,WNW,289,0.0,21.0,90,0.00,,,0.00,Wunderground v.1.15,2013-06-18 11:04:00,
2013-06-18 05:06:00,42.5,39.8,22.70,WNW,290,0.0,21.0,90,0.00,,,0.00,Wunderground v.1.15,2013-06-18 11:06:00,
2013-06-18 05:08:00,42.4,39.7,22.70,WNW,290,0.0,21.0,90,0.00,,,0.00,Wunderground v.1.15,2013-06-18 11:08:00,
2013-06-18 05:10:00,42.4,39.7,22.70,WNW,289,0.0,21.0,90,0.00,,,0.00,Wunderground v.1.15,2013-06-18 11:10:00,
2013-06-18 05:12:00,42.3,39.6,22.70,WNW,289,0.0,21.0,90,0.00,,,0.00,Wunderground v.1.15,2013-06-18 11:12:00,
2013-06-18 05:14:00,42.2,39.5,22.70,WNW,290,0.0,21.0,90,0.00,,,0.00,Wunderground v.1.15,2013-06-18 11:14:00,
2013-06-18 05:16:00,42.2,39.5,22.70,WNW,290,0.0,21.0,90,0.00,,,0.00,Wunderground v.1.15,2013-06-18 11:16:00,
2013-06-18 05:20:00,42.2,39.8,22.70,NNW,346,1.0,21.0,91,0.00,,,0.00,Wunderground v.1.15,2013-06-18 11:20:00,
2013-06-18 05:22:00,42.2,39.8,22.70,NNW,346,1.0,1.0,91,0.00,,,0.00,Wunderground v.1.15,2013-06-18 11:22:00,
2013-06-18 05:24:00,42.2,39.8,22.70,NNW,346,1.0,21.0,91,0.00,,,0.00,Wunderground v.1.15,2013-06-18 11:24:00,
2013-06-18 05:28:00,42.3,39.9,22.70,SW,223,0.0,21.0,91,0.00,,,0.00,Wunderground v.1.15,2013-06-18 11:28:00,
2013-06-18 05:30:00,42.2,39.5,22.70,South,174,0.0,21.0,90,0.00,,,0.00,Wunderground v.1.15,2013-06-18 11:30:00,
2013-06-18 05:32:00,42.2,39.5,22.70,South,174,0.0,21.0,90,0.00,,,0.00,Wunderground v.1.15,2013-06-18 11:32:00,
2013-06-18 05:36:00,42.0,39.3,22.70,South,174,0.0,21.0,90,0.00,,,0.00,Wunderground v.1.15,2013-06-18 11:36:00,
2013-06-18 05:38:00,42.0,39.3,22.70,South,174,1.0,21.0,90,0.00,,,0.00,Wunderground v.1.15,2013-06-18 11:38:00,
2013-06-18 05:40:00,42.0,39.6,22.70,South,174,0.0,21.0,91,0.00,,,0.00,Wunderground v.1.15,2013-06-18 11:40:00,
2013-06-18 05:42:00,42.0,39.6,22.70,South,174,0.0,21.0,91,0.00,,,0.00,Wunderground v.1.15,2013-06-18 11:42:00,
2013-06-18 05:46:00,42.0,39.6,22.70,South,174,0.0,21.0,91,0.00,,,0.00,Wunderground v.1.15,2013-06-18 11:46:00,
2013-06-18 05:48:00,42.0,39.6,22.70,South,174,0.0,21.0,91,0.00,,,0.00,Wunderground v.1.15,2013-06-18 11:48:00,
2013-06-18 05:52:00,42.0,39.3,22.70,South,174,0.0,21.0,90,0.00,,,0.00,Wunderground v.1.15,2013-06-18 11:52:00,
2013-06-18 05:56:00,41.8,39.1,22.70,South,173,0.0,21.0,90,0.00,,,0.00,Wunderground v.1.15,2013-06-18 11:56:00,
2013-06-18 05:58:00,41.7,39.0,22.70,South,174,0.0,21.0,90,0.00,,,0.00,Wunderground v.1.15,2013-06-18 11:58:00,
2013-06-18 06:00:00,41.6,38.9,22.70,South,174,0.0,21.0,90,0.00,,,0.00,Wunderground v.1.15,2013-06-18 12:00:00,
2013-06-18 06:04:00,41.6,39.2,22.70,South,174,0.0,21.0,91,0.00,,,0.00,Wunderground v.1.15,2013-06-18 12:04:00,
2013-06-18 06:06:00,41.7,39.3,22.70,South,174,0.0,21.0,91,0.00,,,0.00,Wunderground v.1.15,2013-06-18 12:06:00,
2013-06-18 06:08:00,41.8,39.4,22.70,South,174,0.0,21.0,91,0.00,,,0.00,Wunderground v.1.15,2013-06-18 12:08:00,
2013-06-18 06:10:00,42.0,39.6,22.70,South,174,0.0,21.0,91,0.00,,,0.00,Wunderground v.1.15,2013-06-18 12:10:00,
2013-06-18 06:16:00,42.3,39.6,22.70,South,174,0.0,21.0,90,0.00,,,0.00,Wunderground v.1.15,2013-06-18 12:16:00,
2013-06-18 06:20:00,42.2,39.2,22.70,South,174,0.0,21.0,89,0.00,,,0.00,Wunderground v.1.15,2013-06-18 12:20:00,
2013-06-18 06:22:00,42.4,39.4,22.70,South,175,0.0,21.0,89,0.00,,,0.00,Wunderground v.1.15,2013-06-18 12:22:00,
2013-06-18 06:24:00,42.6,39.6,22.70,South,174,0.0,21.0,89,0.00,,,0.00,Wunderground v.1.15,2013-06-18 12:24:00,
2013-06-18 06:30:00,43.9,40.3,22.70,South,174,0.0,21.0,87,0.00,,,0.00,Wunderground v.1.15,2013-06-18 12:30:00,
2013-06-18 06:32:00,44.2,40.6,22.70,South,174,0.0,21.0,87,0.00,,,0.00,Wunderground v.1.15,2013-06-18 12:32:00,
2013-06-18 06:36:00,44.9,41.0,22.70,South,174,0.0,21.0,86,0.00,,,0.00,Wunderground v.1.15,2013-06-18 12:36:00,
2013-06-18 06:42:00,46.6,41.7,22.70,South,174,0.0,21.0,83,0.00,,,0.00,Wunderground v.1.15,2013-06-18 12:42:00,
2013-06-18 06:46:00,47.4,42.2,22.70,South,174,0.0,21.0,82,0.00,,,0.00,Wunderground v.1.15,2013-06-18 12:46:00,
2013-06-18 06:48:00,48.0,42.4,22.70,South,174,0.0,21.0,81,0.00,,,0.00,Wunderground v.1.15,2013-06-18 12:48:00,
2013-06-18 06:50:00,48.4,42.5,22.70,South,174,0.0,21.0,80,0.00,,,0.00,Wunderground v.1.15,2013-06-18 12:50:00,
2013-06-18 06:52:00,48.9,43.3,22.70,South,174,0.0,21.0,81,0.00,,,0.00,Wunderground v.1.15,2013-06-18 12:52:00,
2013-06-18 06:56:00,49.8,43.9,22.70,South,175,0.0,21.0,80,0.00,,,0.00,Wunderground v.1.15,2013-06-18 12:56:00,
2013-06-18 06:58:00,50.3,43.7,22.70,South,174,0.0,21.0,78,0.00,,,0.00,Wunderground v.1.15,2013-06-18 12:58:00,
2013-06-18 07:00:00,51.0,44.0,22.70,South,174,0.0,21.0,77,0.00,,,0.00,Wunderground v.1.15,2013-06-18 13:00:00,
2013-06-18 07:02:00,51.8,43.8,22.70,South,175,0.0,21.0,74,0.00,,,0.00,Wunderground v.1.15,2013-06-18 13:02:00,
2013-06-18 07:04:00,52.4,44.4,22.70,South,174,0.0,21.0,74,0.00,,,0.00,Wunderground v.1.15,2013-06-18 13:04:00,
2013-06-18 07:08:00,52.8,44.4,22.70,South,174,0.0,21.0,73,0.00,,,0.00,Wunderground v.1.15,2013-06-18 13:08:00,
2013-06-18 07:10:00,53.2,44.4,22.70,South,174,0.0,21.0,72,0.00,,,0.00,Wunderground v.1.15,2013-06-18 13:10:00,
2013-06-18 07:12:00,53.6,44.0,22.69,South,174,0.0,21.0,70,0.00,,,0.00,Wunderground v.1.15,2013-06-18 13:12:00,
2013-06-18 07:16:00,53.2,43.7,22.69,SE,139,0.0,21.0,70,0.00,,,0.00,Wunderground v.1.15,2013-06-18 13:16:00,
2013-06-18 07:18:00,53.3,44.1,22.69,SE,139,0.0,21.0,71,0.00,,,0.00,Wunderground v.1.15,2013-06-18 13:18:00,
2013-06-18 07:20:00,53.7,44.1,22.69,SE,140,0.0,21.0,70,0.00,,,0.00,Wunderground v.1.15,2013-06-18 13:20:00,
2013-06-18 07:22:00,54.1,44.5,22.69,SE,139,0.0,21.0,70,0.00,,,0.00,Wunderground v.1.15,2013-06-18 13:22:00,
2013-06-18 07:26:00,54.2,43.9,22.70,ENE,70,0.0,21.0,68,0.00,,,0.00,Wunderground v.1.15,2013-06-18 13:26:00,
2013-06-18 07:28:00,54.4,44.1,22.69,ENE,69,0.0,21.0,68,0.00,,,0.00,Wunderground v.1.15,2013-06-18 13:28:00,
2013-06-18 07:32:00,54.3,44.0,22.69,ENE,67,0.0,21.0,68,0.00,,,0.00,Wunderground v.1.15,2013-06-18 13:32:00,
2013-06-18 07:34:00,54.5,44.5,22.69,ESE,122,0.0,21.0,69,0.00,,,0.00,Wunderground v.1.15,2013-06-18 13:34:00,
2013-06-18 07:36:00,54.8,44.8,22.69,ESE,122,0.0,21.0,69,0.00,,,0.00,Wunderground v.1.15,2013-06-18 13:36:00,
2013-06-18 07:38:00,55.2,44.4,22.69,NE,51,0.0,21.0,67,0.00,,,0.00,Wunderground v.1.15,2013-06-18 13:38:00,
2013-06-18 07:42:00,55.6,44.4,22.69,ENE,70,0.0,21.0,66,0.00,,,0.00,Wunderground v.1.15,2013-06-18 13:42:00,
2013-06-18 07:44:00,55.7,44.5,22.69,ESE,105,1.0,21.0,66,0.00,,,0.00,Wunderground v.1.15,2013-06-18 13:44:00,
2013-06-18 07:46:00,55.5,44.3,22.69,North,358,1.0,21.0,66,0.00,,,0.00,Wunderground v.1.15,2013-06-18 13:46:00,
2013-06-18 07:52:00,55.9,44.3,22.69,ESE,105,1.0,21.0,65,0.00,,,0.00,Wunderground v.1.15,2013-06-18 13:52:00,
2013-06-18 07:54:00,56.0,44.4,22.69,ESE,103,1.0,21.0,65,0.00,,,0.00,Wunderground v.1.15,2013-06-18 13:54:00,
2013-06-18 07:56:00,56.3,44.7,22.69,ENE,64,1.0,21.0,65,0.00,,,0.00,Wunderground v.1.15,2013-06-18 13:56:00,
2013-06-18 07:58:00,56.5,44.5,22.69,East,79,1.0,21.0,64,0.00,,,0.00,Wunderground v.1.15,2013-06-18 13:58:00,
2013-06-18 08:02:00,56.7,44.7,22.69,ENE,60,1.0,21.0,64,0.00,,,0.00,Wunderground v.1.15,2013-06-18 14:02:00,
2013-06-18 08:04:00,56.3,43.9,22.69,NE,46,2.0,21.0,63,0.00,,,0.00,Wunderground v.1.15,2013-06-18 14:04:00,
2013-06-18 08:10:00,56.4,44.4,22.69,ENE,74,3.0,21.0,64,0.00,,,0.00,Wunderground v.1.15,2013-06-18 14:10:00,
2013-06-18 08:12:00,56.7,43.8,22.69,ESE,116,2.0,2.0,62,0.00,,,0.00,Wunderground v.1.15,2013-06-18 14:12:00,
2013-06-18 08:18:00,57.6,44.2,22.69,ESE,115,1.0,21.0,61,0.00,,,0.00,Wunderground v.1.15,2013-06-18 14:18:00,
2013-06-18 08:20:00,58.1,45.6,22.69,SE,134,1.0,21.0,63,0.00,,,0.00,Wunderground v.1.15,2013-06-18 14:20:00,
2013-06-18 08:24:00,58.9,44.6,22.69,SSE,153,1.0,21.0,59,0.00,,,0.00,Wunderground v.1.15,2013-06-18 14:24:00,
2013-06-18 08:28:00,59.0,44.7,22.69,SE,141,1.0,21.0,59,0.00,,,0.00,Wunderground v.1.15,2013-06-18 14:28:00,
2013-06-18 08:30:00,59.3,45.0,22.69,South,173,1.0,21.0,59,0.00,,,0.00,Wunderground v.1.15,2013-06-18 14:30:00,
2013-06-18 08:32:00,59.5,44.2,22.69,South,179,1.0,21.0,57,0.00,,,0.00,Wunderground v.1.15,2013-06-18 14:32:00,
2013-06-18 08:34:00,59.8,45.4,22.69,SSW,210,1.0,21.0,59,0.00,,,0.00,Wunderground v.1.15,2013-06-18 14:34:00,
2013-06-18 08:36:00,59.7,44.4,22.69,South,187,2.0,21.0,57,0.00,,,0.00,Wunderground v.1.15,2013-06-18 14:36:00,
2013-06-18 08:38:00,59.9,44.6,22.69,SE,141,1.0,21.0,57,0.00,,,0.00,Wunderground v.1.15,2013-06-18 14:38:00,
2013-06-18 08:42:00,60.1,44.8,22.69,SSW,205,1.0,21.0,57,0.00,,,0.00,Wunderground v.1.15,2013-06-18 14:42:00,
2013-06-18 08:44:00,60.3,45.5,22.69,SE,127,1.0,21.0,58,0.00,,,0.00,Wunderground v.1.15,2013-06-18 14:44:00,
2013-06-18 08:50:00,60.3,44.5,22.69,WSW,249,1.0,21.0,56,0.00,,,0.00,Wunderground v.1.15,2013-06-18 14:50:00,
2013-06-18 08:52:00,60.2,44.9,22.68,West,264,2.0,21.0,57,0.00,,,0.00,Wunderground v.1.15,2013-06-18 14:52:00,
2013-06-18 08:56:00,60.6,45.7,22.68,SW,219,1.0,21.0,58,0.00,,,0.00,Wunderground v.1.15,2013-06-18 14:56:00,
2013-06-18 08:58:00,61.0,45.7,22.68,SW,217,1.0,21.0,57,0.00,,,0.00,Wunderground v.1.15,2013-06-18 14:58:00,
2013-06-18 09:02:00,62.0,46.6,22.68,SE,131,1.0,21.0,57,0.00,,,0.00,Wunderground v.1.15,2013-06-18 15:02:00,
2013-06-18 09:06:00,63.3,46.4,22.68,South,187,1.0,21.0,54,0.00,,,0.00,Wunderground v.1.15,2013-06-18 15:06:00,
2013-06-18 09:10:00,64.6,44.5,22.68,East,99,1.0,21.0,48,0.00,,,0.00,Wunderground v.1.15,2013-06-18 15:10:00,
2013-06-18 09:14:00,65.1,43.2,22.68,East,84,2.0,4.0,45,0.00,,,0.00,Wunderground v.1.15,2013-06-18 15:14:00,
2013-06-18 09:16:00,65.3,44.0,22.68,NE,56,2.0,21.0,46,0.00,,,0.00,Wunderground v.1.15,2013-06-18 15:16:00,
2013-06-18 09:22:00,66.0,45.2,22.68,ENE,74,3.0,21.0,47,0.00,,,0.00,Wunderground v.1.15,2013-06-18 15:22:00,
2013-06-18 09:26:00,66.3,44.3,22.68,North,358,3.0,21.0,45,0.00,,,0.00,Wunderground v.1.15,2013-06-18 15:26:00,
2013-06-18 09:28:00,66.0,44.0,22.68,ENE,57,3.0,21.0,45,0.00,,,0.00,Wunderground v.1.15,2013-06-18 15:28:00,
2013-06-18 09:30:00,65.7,43.8,22.68,NNW,347,4.0,21.0,45,0.00,,,0.00,Wunderground v.1.15,2013-06-18 15:30:00,
2013-06-18 09:32:00,65.6,43.7,22.68,North,359,4.0,21.0,45,0.00,,,0.00,Wunderground v.1.15,2013-06-18 15:32:00,
2013-06-18 09:38:00,65.9,42.8,22.67,North,6,4.0,21.0,43,0.00,,,0.00,Wunderground v.1.15,2013-06-18 15:38:00,
2013-06-18 09:40:00,66.0,44.0,22.67,NNW,341,3.0,21.0,45,0.00,,,0.00,Wunderground v.1.15,2013-06-18 15:40:00,
2013-06-18 09:42:00,66.4,43.8,22.67,NE,49,3.0,3.0,44,0.00,,,0.00,Wunderground v.1.15,2013-06-18 15:42:00,
2013-06-18 09:44:00,66.7,43.5,22.67,SE,143,3.0,21.0,43,0.00,,,0.00,Wunderground v.1.15,2013-06-18 15:44:00,
2013-06-18 09:46:00,66.7,43.5,22.67,NE,40,3.0,21.0,43,0.00,,,0.00,Wunderground v.1.15,2013-06-18 15:46:00,
2013-06-18 09:48:00,66.9,44.9,22.67,East,84,3.0,21.0,45,0.00,,,0.00,Wunderground v.1.15,2013-06-18 15:48:00,
2013-06-18 09:52:00,68.4,43.1,22.67,ENE,70,3.0,21.0,40,0.00,,,0.00,Wunderground v.1.15,2013-06-18 15:52:00,
2013-06-18 09:54:00,68.8,41.5,22.67,North,11,3.0,21.0,37,0.00,,,0.00,Wunderground v.1.15,2013-06-18 15:54:00,
2013-06-18 09:56:00,68.8,41.5,22.67,NNW,342,2.0,21.0,37,0.00,,,0.00,Wunderground v.1.15,2013-06-18 15:56:00,
2013-06-18 10:02:00,68.1,42.9,22.67,SSW,198,3.0,3.0,40,0.00,,,0.00,Wunderground v.1.15,2013-06-18 16:02:00,
2013-06-18 10:04:00,68.7,40.7,22.67,SSE,163,3.0,21.0,36,0.00,,,0.00,Wunderground v.1.15,2013-06-18 16:04:00,
2013-06-18 10:08:00,69.5,37.5,22.67,SE,146,2.0,21.0,31,0.00,,,0.00,Wunderground v.1.15,2013-06-18 16:08:00,
2013-06-18 10:10:00,69.7,38.5,22.67,NNE,27,2.0,21.0,32,0.00,,,0.00,Wunderground v.1.15,2013-06-18 16:10:00,
2013-06-18 10:12:00,69.9,35.3,22.66,NNW,342,2.0,21.0,28,0.00,,,0.00,Wunderground v.1.15,2013-06-18 16:12:00,
2013-06-18 10:14:00,70.1,36.3,22.66,SSE,167,2.0,21.0,29,0.00,,,0.00,Wunderground v.1.15,2013-06-18 16:14:00,
2013-06-18 10:16:00,70.3,35.6,22.66,SW,214,3.0,21.0,28,0.00,,,0.00,Wunderground v.1.15,2013-06-18 16:16:00,
2013-06-18 10:18:00,70.2,36.4,22.66,SE,146,3.0,21.0,29,0.00,,,0.00,Wunderground v.1.15,2013-06-18 16:18:00,
2013-06-18 10:22:00,70.9,37.9,22.66,South,187,2.0,21.0,30,0.00,,,0.00,Wunderground v.1.15,2013-06-18 16:22:00,
2013-06-18 10:26:00,71.7,35.9,22.66,ESE,119,2.0,21.0,27,0.00,,,0.00,Wunderground v.1.15,2013-06-18 16:26:00,
2013-06-18 10:28:00,71.6,35.8,22.66,SE,136,2.0,21.0,27,0.00,,,0.00,Wunderground v.1.15,2013-06-18 16:28:00,
2013-06-18 10:32:00,71.6,36.8,22.66,South,188,3.0,3.0,28,0.00,,,0.00,Wunderground v.1.15,2013-06-18 16:32:00,
2013-06-18 10:34:00,71.9,34.1,22.66,SSE,162,3.0,21.0,25,0.00,,,0.00,Wunderground v.1.15,2013-06-18 16:34:00,
2013-06-18 10:38:00,72.1,36.3,22.66,SSW,204,3.0,21.0,27,0.00,,,0.00,Wunderground v.1.15,2013-06-18 16:38:00,
2013-06-18 10:42:00,72.6,36.7,22.65,ESE,108,3.0,21.0,27,0.00,,,0.00,Wunderground v.1.15,2013-06-18 16:42:00,
2013-06-18 10:44:00,72.4,36.5,22.65,NE,49,3.0,21.0,27,0.00,,,0.00,Wunderground v.1.15,2013-06-18 16:44:00,
2013-06-18 10:46:00,71.9,36.1,22.65,ESE,105,3.0,21.0,27,0.00,,,0.00,Wunderground v.1.15,2013-06-18 16:46:00,
2013-06-18 10:48:00,71.9,37.0,22.65,South,177,3.0,21.0,28,0.00,,,0.00,Wunderground v.1.15,2013-06-18 16:48:00,
2013-06-18 10:50:00,72.1,38.1,22.65,SE,143,4.0,21.0,29,0.00,,,0.00,Wunderground v.1.15,2013-06-18 16:50:00,
2013-06-18 10:52:00,72.7,38.6,22.65,East,101,4.0,4.0,29,0.00,,,0.00,Wunderground v.1.15,2013-06-18 16:52:00,
2013-06-18 10:56:00,73.5,39.3,22.65,South,181,3.0,21.0,29,0.00,,,0.00,Wunderground v.1.15,2013-06-18 16:56:00,
2013-06-18 11:00:00,73.2,38.1,22.65,SSW,201,4.0,21.0,28,0.00,,,0.00,Wunderground v.1.15,2013-06-18 17:00:00,
2013-06-18 11:02:00,73.2,39.0,22.64,South,188,4.0,21.0,29,0.00,,,0.00,Wunderground v.1.15,2013-06-18 17:02:00,
2013-06-18 11:04:00,73.4,38.3,22.64,South,190,4.0,21.0,28,0.00,,,0.00,Wunderground v.1.15,2013-06-18 17:04:00,
2013-06-18 11:06:00,73.6,39.4,22.64,SW,235,4.0,21.0,29,0.00,,,0.00,Wunderground v.1.15,2013-06-18 17:06:00,
2013-06-18 11:08:00,73.5,39.3,22.64,South,176,4.0,21.0,29,0.00,,,0.00,Wunderground v.1.15,2013-06-18 17:08:00,
2013-06-18 11:10:00,73.3,37.3,22.64,SSE,165,4.0,21.0,27,0.00,,,0.00,Wunderground v.1.15,2013-06-18 17:10:00,
2013-06-18 11:12:00,73.4,40.1,22.64,SSW,195,4.0,21.0,30,0.00,,,0.00,Wunderground v.1.15,2013-06-18 17:12:00,
2013-06-18 11:14:00,73.7,39.5,22.64,East,96,4.0,21.0,29,0.00,,,0.00,Wunderground v.1.15,2013-06-18 17:14:00,
2013-06-18 11:16:00,74.3,39.1,22.64,SE,131,4.0,21.0,28,0.00,,,0.00,Wunderground v.1.15,2013-06-18 17:16:00,
2013-06-18 11:22:00,73.1,38.0,22.64,SE,126,4.0,4.0,28,0.00,,,0.00,Wunderground v.1.15,2013-06-18 17:22:00,
2013-06-18 11:26:00,72.0,37.1,22.65,South,169,4.0,21.0,28,0.00,,,0.00,Wunderground v.1.15,2013-06-18 17:26:00,
2013-06-18 11:28:00,71.4,37.5,22.65,SSW,203,4.0,21.0,29,0.00,,,0.00,Wunderground v.1.15,2013-06-18 17:28:00,
2013-06-18 11:30:00,70.9,38.7,22.65,SSE,148,4.0,21.0,31,0.00,,,0.00,Wunderground v.1.15,2013-06-18 17:30:00,
2013-06-18 11:32:00,70.4,39.1,22.65,SE,139,4.0,21.0,32,0.00,,,0.00,Wunderground v.1.15,2013-06-18 17:32:00,
2013-06-18 11:34:00,69.8,39.4,22.65,SSE,166,4.0,21.0,33,0.00,,,0.00,Wunderground v.1.15,2013-06-18 17:34:00,
2013-06-18 11:38:00,68.8,39.3,22.65,ENE,63,4.0,21.0,34,0.00,,,0.00,Wunderground v.1.15,2013-06-18 17:38:00,
2013-06-18 11:40:00,68.6,39.1,22.65,SE,146,5.0,21.0,34,0.00,,,0.00,Wunderground v.1.15,2013-06-18 17:40:00,
2013-06-18 11:42:00,68.6,41.3,22.64,SE,141,5.0,5.0,37,0.00,,,0.00,Wunderground v.1.15,2013-06-18 17:42:00,
2013-06-18 11:46:00,68.3,42.4,22.64,SE,141,4.0,21.0,39,0.00,,,0.00,Wunderground v.1.15,2013-06-18 17:46:00,
2013-06-18 11:48:00,68.3,43.0,22.64,SSE,165,4.0,21.0,40,0.00,,,0.00,Wunderground v.1.15,2013-06-18 17:48:00,
2013-06-18 11:50:00,68.6,42.6,22.64,East,101,5.0,21.0,39,0.00,,,0.00,Wunderground v.1.15,2013-06-18 17:50:00,
2013-06-18 11:54:00,68.9,43.6,22.64,SE,146,5.0,6.0,40,0.00,,,0.00,Wunderground v.1.15,2013-06-18 17:54:00,
2013-06-18 11:56:00,68.9,43.6,22.64,South,174,5.0,21.0,40,0.00,,,0.00,Wunderground v.1.15,2013-06-18 17:56:00,
2013-06-18 12:02:00,68.3,43.7,22.64,SE,126,5.0,5.0,41,0.00,,,0.00,Wunderground v.1.15,2013-06-18 18:02:00,
2013-06-18 12:04:00,68.0,44.0,22.65,SSE,148,5.0,7.0,42,0.00,,,0.00,Wunderground v.1.15,2013-06-18 18:04:00,
2013-06-18 12:06:00,67.9,44.0,22.65,SE,143,5.0,21.0,42,0.00,,,0.00,Wunderground v.1.15,2013-06-18 18:06:00,
2013-06-18 12:10:00,68.3,44.9,22.65,East,96,5.0,21.0,43,0.00,,,0.00,Wunderground v.1.15,2013-06-18 18:10:00,
2013-06-18 12:14:00,69.6,46.1,22.65,NNE,25,4.0,21.0,43,0.00,,,0.00,Wunderground v.1.15,2013-06-18 18:14:00,
2013-06-18 12:16:00,69.4,46.5,22.65,NW,326,4.0,21.0,44,0.00,,,0.00,Wunderground v.1.15,2013-06-18 18:16:00,
2013-06-18 12:20:00,68.5,46.3,22.66,North,11,5.0,21.0,45,0.00,,,0.00,Wunderground v.1.15,2013-06-18 18:20:00,
2013-06-18 12:26:00,66.6,45.7,22.67,ESE,115,5.0,21.0,47,0.00,,,0.00,Wunderground v.1.15,2013-06-18 18:26:00,
2013-06-18 12:30:00,65.9,46.7,22.66,East,82,5.0,21.0,50,0.00,,,0.00,Wunderground v.1.15,2013-06-18 18:30:00,
2013-06-18 12:34:00,64.8,46.8,22.66,ESE,107,5.0,6.0,52,0.00,,,0.00,Wunderground v.1.15,2013-06-18 18:34:00,
2013-06-18 12:36:00,64.4,46.9,22.66,SE,145,5.0,21.0,53,0.00,,,0.00,Wunderground v.1.15,2013-06-18 18:36:00,
2013-06-18 12:38:00,64.2,46.2,22.66,NNE,15,6.0,21.0,52,0.00,,,0.00,Wunderground v.1.15,2013-06-18 18:38:00,
2013-06-18 12:42:00,64.0,46.5,22.67,NNE,32,4.0,4.0,53,0.00,,,0.00,Wunderground v.1.15,2013-06-18 18:42:00,
2013-06-18 12:44:00,63.9,46.4,22.67,East,86,4.0,21.0,53,0.00,,,0.00,Wunderground v.1.15,2013-06-18 18:44:00,
2013-06-18 12:48:00,63.4,46.9,22.67,SE,143,3.0,21.0,55,0.00,,,0.00,Wunderground v.1.15,2013-06-18 18:48:00,
2013-06-18 12:52:00,63.1,46.7,22.67,NE,34,2.0,2.0,55,0.00,,,0.00,Wunderground v.1.15,2013-06-18 18:52:00,
2013-06-18 12:54:00,63.2,46.8,22.67,NNE,16,2.0,21.0,55,0.00,,,0.00,Wunderground v.1.15,2013-06-18 18:54:00,
2013-06-18 12:56:00,63.1,46.7,22.67,ENE,64,2.0,21.0,55,0.00,,,0.00,Wunderground v.1.15,2013-06-18 18:56:00,
2013-06-18 12:58:00,62.9,46.5,22.67,ENE,58,3.0,21.0,55,0.00,,,0.00,Wunderground v.1.15,2013-06-18 18:58:00,
2013-06-18 13:00:00,62.8,46.9,22.67,East,88,3.0,21.0,56,0.00,,,0.00,Wunderground v.1.15,2013-06-18 19:00:00,
2013-06-18 13:04:00,63.0,47.1,22.67,East,79,3.0,21.0,56,0.00,,,0.00,Wunderground v.1.15,2013-06-18 19:04:00,
2013-06-18 13:06:00,62.9,47.0,22.67,ESE,112,3.0,21.0,56,0.00,,,0.00,Wunderground v.1.15,2013-06-18 19:06:00,
2013-06-18 13:10:00,62.8,46.9,22.67,NNW,345,3.0,21.0,56,0.00,,,0.00,Wunderground v.1.15,2013-06-18 19:10:00,
2013-06-18 13:12:00,62.9,47.0,22.67,NNE,27,3.0,3.0,56,0.00,,,0.00,Wunderground v.1.15,2013-06-18 19:12:00,
2013-06-18 13:18:00,63.8,48.7,22.66,ENE,67,4.0,21.0,58,0.00,,,0.00,Wunderground v.1.15,2013-06-18 19:18:00,
2013-06-18 13:20:00,64.2,48.6,22.66,NE,34,3.0,21.0,57,0.00,,,0.00,Wunderground v.1.15,2013-06-18 19:20:00,
2013-06-18 13:22:00,64.3,47.8,22.66,NE,47,3.0,3.0,55,0.00,,,0.00,Wunderground v.1.15,2013-06-18 19:22:00,
2013-06-18 13:24:00,64.4,45.9,22.66,SE,142,3.0,21.0,51,0.00,,,0.00,Wunderground v.1.15,2013-06-18 19:24:00,
2013-06-18 13:28:00,65.0,46.4,22.66,NNW,333,2.0,21.0,51,0.00,,,0.00,Wunderground v.1.15,2013-06-18 19:28:00,
2013-06-18 13:30:00,65.4,45.2,22.66,ENE,60,2.0,21.0,48,0.00,,,0.00,Wunderground v.1.15,2013-06-18 19:30:00,
2013-06-18 13:32:00,65.6,45.9,22.66,NE,41,2.0,2.0,49,0.00,,,0.00,Wunderground v.1.15,2013-06-18 19:32:00,
2013-06-18 13:38:00,66.3,43.1,22.65,NE,44,2.0,21.0,43,0.00,,,0.00,Wunderground v.1.15,2013-06-18 19:38:00,
2013-06-18 13:40:00,66.3,43.7,22.65,ESE,105,3.0,21.0,44,0.00,,,0.00,Wunderground v.1.15,2013-06-18 19:40:00,
2013-06-18 13:44:00,66.7,44.7,22.65,WSW,240,3.0,21.0,45,0.00,,,0.00,Wunderground v.1.15,2013-06-18 19:44:00,
2013-06-18 13:46:00,67.3,45.2,22.65,SE,124,3.0,21.0,45,0.00,,,0.00,Wunderground v.1.15,2013-06-18 19:46:00,
2013-06-18 13:48:00,68.1,45.4,22.65,NW,316,3.0,21.0,44,0.00,,,0.00,Wunderground v.1.15,2013-06-18 19:48:00,
2013-06-18 13:52:00,69.1,45.7,22.65,NW,314,2.0,21.0,43,0.00,,,0.00,Wunderground v.1.15,2013-06-18 19:52:00,
2013-06-18 13:54:00,68.8,39.3,22.65,NW,312,3.0,21.0,34,0.00,,,0.00,Wunderground v.1.15,2013-06-18 19:54:00,
2013-06-18 14:00:00,68.5,41.2,22.65,South,190,3.0,21.0,37,0.00,,,0.00,Wunderground v.1.15,2013-06-18 20:00:00,
2013-06-18 14:02:00,68.7,40.7,22.65,South,184,3.0,21.0,36,0.00,,,0.00,Wunderground v.1.15,2013-06-18 20:02:00,
2013-06-18 14:04:00,68.9,40.8,22.65,SE,131,3.0,21.0,36,0.00,,,0.00,Wunderground v.1.15,2013-06-18 20:04:00,
2013-06-18 14:06:00,69.1,39.5,22.65,South,188,2.0,21.0,34,0.00,,,0.00,Wunderground v.1.15,2013-06-18 20:06:00,
2013-06-18 14:08:00,69.1,41.7,22.65,South,172,2.0,21.0,37,0.00,,,0.00,Wunderground v.1.15,2013-06-18 20:08:00,
2013-06-18 14:10:00,68.7,42.1,22.65,South,178,3.0,21.0,38,0.00,,,0.00,Wunderground v.1.15,2013-06-18 20:10:00,
2013-06-18 14:12:00,68.1,40.8,22.65,South,181,3.0,21.0,37,0.00,,,0.00,Wunderground v.1.15,2013-06-18 20:12:00,
2013-06-18 14:18:00,66.7,42.9,22.66,SSW,211,4.0,21.0,42,0.00,,,0.00,Wunderground v.1.15,2013-06-18 20:18:00,
2013-06-18 14:20:00,66.4,38.6,22.66,SSW,198,4.0,21.0,36,0.00,,,0.00,Wunderground v.1.15,2013-06-18 20:20:00,
2013-06-18 14:22:00,66.3,40.6,22.66,ESE,113,4.0,4.0,39,0.00,,,0.00,Wunderground v.1.15,2013-06-18 20:22:00,
2013-06-18 14:28:00,66.7,43.5,22.65,SE,143,3.0,21.0,43,0.00,,,0.00,Wunderground v.1.15,2013-06-18 20:28:00,
2013-06-18 14:30:00,66.9,43.7,22.65,SE,134,2.0,21.0,43,0.00,,,0.00,Wunderground v.1.15,2013-06-18 20:30:00,
2013-06-18 14:34:00,67.2,40.7,22.65,SW,222,2.0,21.0,38,0.00,,,0.00,Wunderground v.1.15,2013-06-18 20:34:00,
2013-06-18 14:40:00,68.7,41.4,22.64,SE,146,2.0,21.0,37,0.00,,,0.00,Wunderground v.1.15,2013-06-18 20:40:00,
2013-06-18 14:42:00,69.1,42.4,22.64,South,191,2.0,21.0,38,0.00,,,0.00,Wunderground v.1.15,2013-06-18 20:42:00,
2013-06-18 14:44:00,69.2,41.1,22.64,SSE,165,2.0,21.0,36,0.00,,,0.00,Wunderground v.1.15,2013-06-18 20:44:00,
2013-06-18 14:48:00,69.5,39.1,22.64,WSW,249,4.0,21.0,33,0.00,,,0.00,Wunderground v.1.15,2013-06-18 20:48:00,
2013-06-18 14:50:00,69.9,39.5,22.64,South,190,4.0,21.0,33,0.00,,,0.00,Wunderground v.1.15,2013-06-18 20:50:00,
2013-06-18 14:52:00,70.3,39.8,22.64,SSE,167,4.0,21.0,33,0.00,,,0.00,Wunderground v.1.15,2013-06-18 20:52:00,
2013-06-18 14:54:00,70.6,38.5,22.64,SSW,202,4.0,21.0,31,0.00,,,0.00,Wunderground v.1.15,2013-06-18 20:54:00,
2013-06-18 14:58:00,71.2,36.4,22.63,SE,141,4.0,21.0,28,0.00,,,0.00,Wunderground v.1.15,2013-06-18 20:58:00,
2013-06-18 15:00:00,71.7,35.9,22.64,SSW,193,4.0,21.0,27,0.00,,,0.00,Wunderground v.1.15,2013-06-18 21:00:00,
2013-06-18 15:02:00,72.2,37.3,22.64,SE,127,4.0,21.0,28,0.00,,,0.00,Wunderground v.1.15,2013-06-18 21:02:00,
2013-06-18 15:04:00,72.7,37.7,22.63,North,11,3.0,21.0,28,0.00,,,0.00,Wunderground v.1.15,2013-06-18 21:04:00,
2013-06-18 15:06:00,73.3,38.2,22.63,SSW,193,3.0,21.0,28,0.00,,,0.00,Wunderground v.1.15,2013-06-18 21:06:00,
2013-06-18 15:08:00,73.0,37.0,22.63,ESE,113,3.0,21.0,27,0.00,,,0.00,Wunderground v.1.15,2013-06-18 21:08:00,
2013-06-18 15:10:00,72.4,37.4,22.63,South,173,4.0,21.0,28,0.00,,,0.00,Wunderground v.1.15,2013-06-18 21:10:00,
2013-06-18 15:12:00,72.1,38.1,22.63,SW,218,4.0,21.0,29,0.00,,,0.00,Wunderground v.1.15,2013-06-18 21:12:00,
2013-06-18 15:14:00,72.3,38.2,22.63,ESE,122,4.0,21.0,29,0.00,,,0.00,Wunderground v.1.15,2013-06-18 21:14:00,
2013-06-18 15:16:00,72.6,40.2,22.63,SSE,167,4.0,21.0,31,0.00,,,0.00,Wunderground v.1.15,2013-06-18 21:16:00,
2013-06-18 15:18:00,72.5,40.1,22.62,SSE,162,4.0,21.0,31,0.00,,,0.00,Wunderground v.1.15,2013-06-18 21:18:00,
2013-06-18 15:20:00,72.2,39.0,22.62,South,191,4.0,21.0,30,0.00,,,0.00,Wunderground v.1.15,2013-06-18 21:20:00,
2013-06-18 15:22:00,71.6,39.3,22.62,ENE,75,4.0,4.0,31,0.00,,,0.00,Wunderground v.1.15,2013-06-18 21:22:00,
2013-06-18 15:26:00,71.1,38.9,22.62,South,172,3.0,21.0,31,0.00,,,0.00,Wunderground v.1.15,2013-06-18 21:26:00,
2013-06-18 15:28:00,71.1,38.9,22.62,South,183,3.0,21.0,31,0.00,,,0.00,Wunderground v.1.15,2013-06-18 21:28:00,
2013-06-18 15:32:00,71.3,39.1,22.62,SSE,159,2.0,21.0,31,0.00,,,0.00,Wunderground v.1.15,2013-06-18 21:32:00,
2013-06-18 15:38:00,72.1,37.2,22.62,SE,142,3.0,21.0,28,0.00,,,0.00,Wunderground v.1.15,2013-06-18 21:38:00,
2013-06-18 15:40:00,72.6,35.7,22.61,ESE,119,3.0,21.0,26,0.00,,,0.00,Wunderground v.1.15,2013-06-18 21:40:00,
2013-06-18 15:42:00,73.2,35.2,22.61,East,81,3.0,21.0,25,0.00,,,0.00,Wunderground v.1.15,2013-06-18 21:42:00,
2013-06-18 15:46:00,73.3,39.1,22.61,East,84,3.0,21.0,29,0.00,,,0.00,Wunderground v.1.15,2013-06-18 21:46:00,
2013-06-18 15:48:00,72.9,40.5,22.61,SSE,162,4.0,21.0,31,0.00,,,0.00,Wunderground v.1.15,2013-06-18 21:48:00,
2013-06-18 15:50:00,72.9,41.3,22.61,ESE,105,4.0,21.0,32,0.00,,,0.00,Wunderground v.1.15,2013-06-18 21:50:00,
2013-06-18 15:54:00,73.0,38.9,22.61,SSE,153,4.0,21.0,29,0.00,,,0.00,Wunderground v.1.15,2013-06-18 21:54:00,
2013-06-18 15:58:00,73.1,37.1,22.60,SSW,208,4.0,21.0,27,0.00,,,0.00,Wunderground v.1.15,2013-06-18 21:58:00,
2013-06-18 16:00:00,73.1,38.9,22.60,ENE,72,4.0,21.0,29,0.00,,,0.00,Wunderground v.1.15,2013-06-18 22:00:00,
2013-06-18 16:02:00,73.3,40.0,22.60,SSW,204,3.0,21.0,30,0.00,,,0.00,Wunderground v.1.15,2013-06-18 22:02:00,
2013-06-18 16:08:00,73.6,35.6,22.60,South,169,3.0,21.0,25,0.00,,,0.00,Wunderground v.1.15,2013-06-18 22:08:00,
2013-06-18 16:10:00,73.4,34.4,22.60,SSW,211,3.0,21.0,24,0.00,,,0.00,Wunderground v.1.15,2013-06-18 22:10:00,
2013-06-18 16:14:00,73.3,36.3,22.60,SSE,150,4.0,6.0,26,0.00,,,0.00,Wunderground v.1.15,2013-06-18 22:14:00,
2013-06-18 16:16:00,73.2,34.2,22.60,SSW,204,4.0,21.0,24,0.00,,,0.00,Wunderground v.1.15,2013-06-18 22:16:00,
2013-06-18 16:22:00,73.1,34.1,22.59,South,188,3.0,3.0,24,0.00,,,0.00,Wunderground v.1.15,2013-06-18 22:22:00,
2013-06-18 16:24:00,73.3,35.3,22.59,SSE,167,2.0,21.0,25,0.00,,,0.00,Wunderground v.1.15,2013-06-18 22:24:00,
2013-06-18 16:26:00,73.4,35.4,22.59,ESE,113,2.0,21.0,25,0.00,,,0.00,Wunderground v.1.15,2013-06-18 22:26:00,
2013-06-18 16:28:00,73.4,34.4,22.59,SSW,208,2.0,21.0,24,0.00,,,0.00,Wunderground v.1.15,2013-06-18 22:28:00,
2013-06-18 16:30:00,73.2,36.2,22.59,South,171,2.0,21.0,26,0.00,,,0.00,Wunderground v.1.15,2013-06-18 22:30:00,
2013-06-18 16:34:00,73.5,35.5,22.59,South,188,3.0,21.0,25,0.00,,,0.00,Wunderground v.1.15,2013-06-18 22:34:00,
2013-06-18 16:36:00,73.6,33.5,22.58,SSW,195,3.0,21.0,23,0.00,,,0.00,Wunderground v.1.15,2013-06-18 22:36:00,
2013-06-18 16:40:00,73.6,33.5,22.58,WSW,238,3.0,21.0,23,0.00,,,0.00,Wunderground v.1.15,2013-06-18 22:40:00,
2013-06-18 16:42:00,73.3,32.1,22.58,SSW,212,3.0,3.0,22,0.00,,,0.00,Wunderground v.1.15,2013-06-18 22:42:00,
2013-06-18 16:46:00,73.0,34.1,22.58,NNW,333,2.0,21.0,24,0.00,,,0.00,Wunderground v.1.15,2013-06-18 22:46:00,
2013-06-18 16:48:00,72.9,32.9,22.58,West,266,2.0,21.0,23,0.00,,,0.00,Wunderground v.1.15,2013-06-18 22:48:00,
2013-06-18 16:52:00,72.7,33.8,22.58,ESE,115,1.0,21.0,24,0.00,,,0.00,Wunderground v.1.15,2013-06-18 22:52:00,
2013-06-18 16:54:00,72.6,33.7,22.58,ESE,115,1.0,21.0,24,0.00,,,0.00,Wunderground v.1.15,2013-06-18 22:54:00,
2013-06-18 16:58:00,72.7,33.8,22.58,SE,138,1.0,21.0,24,0.00,,,0.00,Wunderground v.1.15,2013-06-18 22:58:00,
2013-06-18 17:00:00,72.8,34.9,22.57,South,178,2.0,21.0,25,0.00,,,0.00,Wunderground v.1.15,2013-06-18 23:00:00,
2013-06-18 17:06:00,72.6,34.7,22.58,SW,224,2.0,21.0,25,0.00,,,0.00,Wunderground v.1.15,2013-06-18 23:06:00,
2013-06-18 17:10:00,73.3,34.3,22.57,ESE,119,1.0,21.0,24,0.00,,,0.00,Wunderground v.1.15,2013-06-18 23:10:00,
2013-06-18 17:12:00,73.5,33.4,22.57,SW,218,1.0,21.0,23,0.00,,,0.00,Wunderground v.1.15,2013-06-18 23:12:00,
2013-06-18 17:14:00,73.5,34.5,22.57,SSE,167,1.0,21.0,24,0.00,,,0.00,Wunderground v.1.15,2013-06-18 23:14:00,
2013-06-18 17:18:00,74.1,32.8,22.57,ENE,75,1.0,21.0,22,0.00,,,0.00,Wunderground v.1.15,2013-06-18 23:18:00,
2013-06-18 17:20:00,74.1,33.9,22.57,ENE,65,1.0,21.0,23,0.00,,,0.00,Wunderground v.1.15,2013-06-18 23:20:00,
2013-06-18 17:22:00,74.2,32.9,22.57,SW,217,1.0,21.0,22,0.00,,,0.00,Wunderground v.1.15,2013-06-18 23:22:00,
2013-06-18 17:26:00,74.3,33.0,22.57,East,98,1.0,21.0,22,0.00,,,0.00,Wunderground v.1.15,2013-06-18 23:26:00,
2013-06-18 17:28:00,74.7,34.4,22.57,East,97,1.0,21.0,23,0.00,,,0.00,Wunderground v.1.15,2013-06-18 23:28:00,
2013-06-18 17:30:00,75.4,35.0,22.57,SSW,202,1.0,21.0,23,0.00,,,0.00,Wunderground v.1.15,2013-06-18 23:30:00,
2013-06-18 17:32:00,75.8,35.3,22.57,SW,228,1.0,1.0,23,0.00,,,0.00,Wunderground v.1.15,2013-06-18 23:32:00,
2013-06-18 17:34:00,76.0,33.2,22.57,East,82,1.0,4.0,21,0.00,,,0.00,Wunderground v.1.15,2013-06-18 23:34:00,
2013-06-18 17:36:00,75.6,32.9,22.57,East,96,1.0,21.0,21,0.00,,,0.00,Wunderground v.1.15,2013-06-18 23:36:00,
2013-06-18 17:40:00,74.3,31.8,22.57,NNE,26,3.0,21.0,21,0.00,,,0.00,Wunderground v.1.15,2013-06-18 23:40:00,
2013-06-18 17:44:00,73.3,32.1,22.57,SE,136,3.0,21.0,22,0.00,,,0.00,Wunderground v.1.15,2013-06-18 23:44:00,
2013-06-18 17:46:00,73.3,32.1,22.56,NW,326,2.0,21.0,22,0.00,,,0.00,Wunderground v.1.15,2013-06-18 23:46:00,
2013-06-18 17:50:00,73.5,33.4,22.56,NNW,344,1.0,21.0,23,0.00,,,0.00,Wunderground v.1.15,2013-06-18 23:50:00,
2013-06-18 17:54:00,74.1,32.8,22.56,WSW,243,0.0,21.0,22,0.00,,,0.00,Wunderground v.1.15,2013-06-18 23:54:00,
2013-06-18 17:56:00,74.8,33.4,22.56,WSW,243,0.0,21.0,22,0.00,,,0.00,Wunderground v.1.15,2013-06-18 23:56:00,
2013-06-18 17:58:00,75.3,33.8,22.56,NE,43,0.0,21.0,22,0.00,,,0.00,Wunderground v.1.15,2013-06-18 23:58:00,
2013-06-18 18:02:00,75.2,37.9,22.56,SSW,202,2.0,21.0,26,0.00,,,0.00,Wunderground v.1.15,2013-06-19 00:02:00,
2013-06-18 18:04:00,74.8,38.6,22.56,SE,143,3.0,21.0,27,0.00,,,0.00,Wunderground v.1.15,2013-06-19 00:04:00,
2013-06-18 18:06:00,74.3,40.8,22.56,SSW,195,4.0,21.0,30,0.00,,,0.00,Wunderground v.1.15,2013-06-19 00:06:00,
2013-06-18 18:08:00,74.0,40.6,22.56,ESE,121,4.0,21.0,30,0.00,,,0.00,Wunderground v.1.15,2013-06-19 00:08:00,
2013-06-18 18:10:00,73.9,41.3,22.56,ESE,119,5.0,21.0,31,0.00,,,0.00,Wunderground v.1.15,2013-06-19 00:10:00,
2013-06-18 18:12:00,73.4,42.5,22.56,SSE,149,5.0,21.0,33,0.00,,,0.00,Wunderground v.1.15,2013-06-19 00:12:00,
2013-06-18 18:16:00,72.1,42.2,22.56,SE,131,4.0,21.0,34,0.00,,,0.00,Wunderground v.1.15,2013-06-19 00:16:00,
2013-06-18 18:18:00,71.5,42.4,22.56,South,188,4.0,21.0,35,0.00,,,0.00,Wunderground v.1.15,2013-06-19 00:18:00,
2013-06-18 18:20:00,71.1,42.0,22.56,ESE,105,4.0,21.0,35,0.00,,,0.00,Wunderground v.1.15,2013-06-19 00:20:00,
2013-06-18 18:26:00,69.8,42.3,22.57,SSE,155,5.0,21.0,37,0.00,,,0.00,Wunderground v.1.15,2013-06-19 00:26:00,
2013-06-18 18:28:00,69.5,42.1,22.57,ESE,108,5.0,21.0,37,0.00,,,0.00,Wunderground v.1.15,2013-06-19 00:28:00,
2013-06-18 18:32:00,69.3,41.9,22.57,SSE,167,4.0,21.0,37,0.00,,,0.00,Wunderground v.1.15,2013-06-19 00:32:00,
2013-06-18 18:34:00,69.1,42.4,22.57,South,179,4.0,21.0,38,0.00,,,0.00,Wunderground v.1.15,2013-06-19 00:34:00,
2013-06-18 18:38:00,68.6,42.6,22.57,SE,134,4.0,21.0,39,0.00,,,0.00,Wunderground v.1.15,2013-06-19 00:38:00,
2013-06-18 18:40:00,68.2,42.3,22.57,SW,218,5.0,21.0,39,0.00,,,0.00,Wunderground v.1.15,2013-06-19 00:40:00,
2013-06-18 18:42:00,67.9,42.0,22.57,South,169,5.0,21.0,39,0.00,,,0.00,Wunderground v.1.15,2013-06-19 00:42:00,
2013-06-18 18:44:00,67.7,42.5,22.57,SW,215,5.0,21.0,40,0.00,,,0.00,Wunderground v.1.15,2013-06-19 00:44:00,
2013-06-18 18:48:00,67.3,42.8,22.56,SE,146,5.0,21.0,41,0.00,,,0.00,Wunderground v.1.15,2013-06-19 00:48:00,
2013-06-18 18:50:00,67.1,42.6,22.56,ESE,112,5.0,21.0,41,0.00,,,0.00,Wunderground v.1.15,2013-06-19 00:50:00,
2013-06-18 18:52:00,66.9,42.4,22.56,South,183,5.0,5.0,41,0.00,,,0.00,Wunderground v.1.15,2013-06-19 00:52:00,
2013-06-18 18:54:00,66.8,42.3,22.57,South,188,5.0,6.0,41,0.00,,,0.00,Wunderground v.1.15,2013-06-19 00:54:00,
2013-06-18 18:56:00,66.7,42.9,22.57,ESE,120,5.0,21.0,42,0.00,,,0.00,Wunderground v.1.15,2013-06-19 00:56:00,
2013-06-18 19:02:00,66.5,43.9,22.57,East,98,4.0,4.0,44,0.00,,,0.00,Wunderground v.1.15,2013-06-19 01:02:00,
2013-06-18 19:06:00,66.4,44.4,22.57,South,179,4.0,21.0,45,0.00,,,0.00,Wunderground v.1.15,2013-06-19 01:06:00,
2013-06-18 19:08:00,66.4,45.0,22.57,ENE,77,3.0,21.0,46,0.00,,,0.00,Wunderground v.1.15,2013-06-19 01:08:00,
2013-06-18 19:10:00,66.3,44.9,22.57,ESE,115,3.0,21.0,46,0.00,,,0.00,Wunderground v.1.15,2013-06-19 01:10:00,
2013-06-18 19:14:00,66.2,45.9,22.57,SSW,198,3.0,21.0,48,0.00,,,0.00,Wunderground v.1.15,2013-06-19 01:14:00,
2013-06-18 19:16:00,66.2,45.9,22.57,ESE,106,3.0,21.0,48,0.00,,,0.00,Wunderground v.1.15,2013-06-19 01:16:00,
2013-06-18 19:18:00,66.1,45.8,22.57,South,184,3.0,21.0,48,0.00,,,0.00,Wunderground v.1.15,2013-06-19 01:18:00,
2013-06-18 19:22:00,66.0,45.7,22.57,SE,145,2.0,21.0,48,0.00,,,0.00,Wunderground v.1.15,2013-06-19 01:22:00,
2013-06-18 19:24:00,65.9,45.6,22.57,SSE,168,3.0,21.0,48,0.00,,,0.00,Wunderground v.1.15,2013-06-19 01:24:00,
2013-06-18 19:26:00,65.9,45.6,22.57,ESE,113,3.0,21.0,48,0.00,,,0.00,Wunderground v.1.15,2013-06-19 01:26:00,
2013-06-18 19:28:00,65.8,46.1,22.57,South,177,3.0,21.0,49,0.00,,,0.00,Wunderground v.1.15,2013-06-19 01:28:00,
2013-06-18 19:30:00,65.8,46.1,22.57,SSE,166,3.0,21.0,49,0.00,,,0.00,Wunderground v.1.15,2013-06-19 01:30:00,
2013-06-18 19:36:00,65.6,46.5,22.57,South,179,3.0,21.0,50,0.00,,,0.00,Wunderground v.1.15,2013-06-19 01:36:00,
2013-06-18 19:38:00,65.5,45.8,22.57,West,274,3.0,21.0,49,0.00,,,0.00,Wunderground v.1.15,2013-06-19 01:38:00,
2013-06-18 19:44:00,65.4,44.6,22.58,NE,43,3.0,21.0,47,0.00,,,0.00,Wunderground v.1.15,2013-06-19 01:44:00,
2013-06-18 19:46:00,65.3,44.0,22.58,SE,128,3.0,21.0,46,0.00,,,0.00,Wunderground v.1.15,2013-06-19 01:46:00,
2013-06-18 19:48:00,65.3,44.0,22.58,ENE,70,3.0,21.0,46,0.00,,,0.00,Wunderground v.1.15,2013-06-19 01:48:00,
2013-06-18 19:52:00,65.1,42.6,22.58,ENE,67,3.0,21.0,44,0.00,,,0.00,Wunderground v.1.15,2013-06-19 01:52:00,
2013-06-18 19:54:00,65.0,42.5,22.58,NE,37,3.0,21.0,44,0.00,,,0.00,Wunderground v.1.15,2013-06-19 01:54:00,
2013-06-18 19:56:00,64.9,42.5,22.57,NE,46,2.0,21.0,44,0.00,,,0.00,Wunderground v.1.15,2013-06-19 01:56:00,
2013-06-18 19:58:00,64.8,42.4,22.57,NE,39,3.0,21.0,44,0.00,,,0.00,Wunderground v.1.15,2013-06-19 01:58:00,
2013-06-18 20:00:00,64.6,42.2,22.58,NE,56,3.0,21.0,44,0.00,,,0.00,Wunderground v.1.15,2013-06-19 02:00:00,
2013-06-18 20:04:00,64.3,41.9,22.58,ENE,58,3.0,21.0,44,0.00,,,0.00,Wunderground v.1.15,2013-06-19 02:04:00,
2013-06-18 20:06:00,64.2,41.8,22.58,ENE,58,3.0,21.0,44,0.00,,,0.00,Wunderground v.1.15,2013-06-19 02:06:00,
2013-06-18 20:08:00,64.0,42.2,22.58,NE,50,3.0,21.0,45,0.00,,,0.00,Wunderground v.1.15,2013-06-19 02:08:00,
2013-06-18 20:10:00,63.9,42.1,22.58,ESE,108,2.0,21.0,45,0.00,,,0.00,Wunderground v.1.15,2013-06-19 02:10:00,
2013-06-18 20:12:00,63.8,42.0,22.58,East,82,2.0,21.0,45,0.00,,,0.00,Wunderground v.1.15,2013-06-19 02:12:00,
2013-06-18 20:14:00,63.7,41.9,22.58,East,84,2.0,21.0,45,0.00,,,0.00,Wunderground v.1.15,2013-06-19 02:14:00,
2013-06-18 20:16:00,63.5,41.8,22.58,East,89,2.0,21.0,45,0.00,,,0.00,Wunderground v.1.15,2013-06-19 02:16:00,
2013-06-18 20:18:00,63.4,41.7,22.58,ESE,119,2.0,21.0,45,0.00,,,0.00,Wunderground v.1.15,2013-06-19 02:18:00,
2013-06-18 20:20:00,63.3,41.6,22.58,ESE,103,3.0,21.0,45,0.00,,,0.00,Wunderground v.1.15,2013-06-19 02:20:00,
2013-06-18 20:24:00,63.1,42.0,22.58,SSW,212,3.0,21.0,46,0.00,,,0.00,Wunderground v.1.15,2013-06-19 02:24:00,
2013-06-18 20:26:00,63.0,41.9,22.58,SSW,212,3.0,21.0,46,0.00,,,0.00,Wunderground v.1.15,2013-06-19 02:26:00,
2013-06-18 20:28:00,62.9,41.8,22.58,NE,34,2.0,21.0,46,0.00,,,0.00,Wunderground v.1.15,2013-06-19 02:28:00,
2013-06-18 20:32:00,62.7,41.6,22.58,ESE,106,1.0,21.0,46,0.00,,,0.00,Wunderground v.1.15,2013-06-19 02:32:00,
2013-06-18 20:34:00,62.7,41.6,22.58,ENE,63,1.0,21.0,46,0.00,,,0.00,Wunderground v.1.15,2013-06-19 02:34:00,
2013-06-18 20:36:00,62.6,42.1,22.58,ENE,63,1.0,21.0,47,0.00,,,0.00,Wunderground v.1.15,2013-06-19 02:36:00,
2013-06-18 20:42:00,62.5,42.0,22.58,East,89,1.0,21.0,47,0.00,,,0.00,Wunderground v.1.15,2013-06-19 02:42:00,
2013-06-18 20:44:00,62.4,42.4,22.59,ENE,63,1.0,21.0,48,0.00,,,0.00,Wunderground v.1.15,2013-06-19 02:44:00,
2013-06-18 20:50:00,62.2,42.3,22.59,NE,43,1.0,21.0,48,0.00,,,0.00,Wunderground v.1.15,2013-06-19 02:50:00,
2013-06-18 20:52:00,62.1,42.2,22.59,SE,127,1.0,1.0,48,0.00,,,0.00,Wunderground v.1.15,2013-06-19 02:52:00,
2013-06-18 20:56:00,61.8,42.4,22.59,NNE,15,1.0,21.0,49,0.00,,,0.00,Wunderground v.1.15,2013-06-19 02:56:00,
2013-06-18 20:58:00,61.7,42.3,22.59,North,357,1.0,21.0,49,0.00,,,0.00,Wunderground v.1.15,2013-06-19 02:58:00,
2013-06-18 21:00:00,61.6,42.2,22.59,ENE,77,1.0,21.0,49,0.00,,,0.00,Wunderground v.1.15,2013-06-19 03:00:00,
2013-06-18 21:06:00,61.4,42.6,22.59,ENE,65,2.0,21.0,50,0.00,,,0.00,Wunderground v.1.15,2013-06-19 03:06:00,
2013-06-18 21:08:00,61.4,42.6,22.59,ENE,74,2.0,21.0,50,0.00,,,0.00,Wunderground v.1.15,2013-06-19 03:08:00,
2013-06-18 21:10:00,61.3,43.0,22.59,ESE,120,2.0,21.0,51,0.00,,,0.00,Wunderground v.1.15,2013-06-19 03:10:00,
2013-06-18 21:14:00,61.1,43.3,22.59,NE,46,2.0,21.0,52,0.00,,,0.00,Wunderground v.1.15,2013-06-19 03:14:00,
2013-06-18 21:18:00,60.9,43.1,22.59,NE,39,2.0,21.0,52,0.00,,,0.00,Wunderground v.1.15,2013-06-19 03:18:00,
2013-06-18 21:20:00,60.8,43.1,22.59,NE,56,2.0,21.0,52,0.00,,,0.00,Wunderground v.1.15,2013-06-19 03:20:00,
2013-06-18 21:22:00,60.8,43.6,22.59,NE,56,1.0,1.0,53,0.00,,,0.00,Wunderground v.1.15,2013-06-19 03:22:00,
2013-06-18 21:24:00,60.7,43.5,22.59,NE,56,1.0,21.0,53,0.00,,,0.00,Wunderground v.1.15,2013-06-19 03:24:00,
2013-06-18 21:26:00,60.6,43.4,22.59,NE,56,1.0,21.0,53,0.00,,,0.00,Wunderground v.1.15,2013-06-19 03:26:00,
2013-06-18 21:30:00,60.5,43.3,22.60,NE,56,0.0,21.0,53,0.00,,,0.00,Wunderground v.1.15,2013-06-19 03:30:00,
2013-06-18 21:32:00,60.4,43.2,22.60,NNW,329,0.0,21.0,53,0.00,,,0.00,Wunderground v.1.15,2013-06-19 03:32:00,
2013-06-18 21:36:00,60.4,43.2,22.60,North,352,1.0,21.0,53,0.00,,,0.00,Wunderground v.1.15,2013-06-19 03:36:00,
2013-06-18 21:38:00,60.4,43.2,22.60,NNW,338,1.0,21.0,53,0.00,,,0.00,Wunderground v.1.15,2013-06-19 03:38:00,
2013-06-18 21:40:00,60.3,43.1,22.59,NNW,334,1.0,21.0,53,0.00,,,0.00,Wunderground v.1.15,2013-06-19 03:40:00,
2013-06-18 21:44:00,60.2,43.5,22.59,NNW,335,1.0,21.0,54,0.00,,,0.00,Wunderground v.1.15,2013-06-19 03:44:00,
2013-06-18 21:48:00,60.1,43.4,22.59,NNW,341,1.0,21.0,54,0.00,,,0.00,Wunderground v.1.15,2013-06-19 03:48:00,
2013-06-18 21:50:00,60.1,43.4,22.59,NE,56,1.0,21.0,54,0.00,,,0.00,Wunderground v.1.15,2013-06-19 03:50:00,
2013-06-18 21:52:00,60.1,43.4,22.59,East,86,1.0,1.0,54,0.00,,,0.00,Wunderground v.1.15,2013-06-19 03:52:00,
2013-06-18 21:54:00,60.0,43.3,22.59,East,86,1.0,21.0,54,0.00,,,0.00,Wunderground v.1.15,2013-06-19 03:54:00,
2013-06-18 21:56:00,59.9,43.2,22.59,East,86,1.0,21.0,54,0.00,,,0.00,Wunderground v.1.15,2013-06-19 03:56:00,
2013-06-18 21:58:00,59.7,43.5,22.59,East,86,1.0,21.0,55,0.00,,,0.00,Wunderground v.1.15,2013-06-19 03:58:00,
2013-06-18 22:00:00,59.5,43.3,22.59,East,86,1.0,21.0,55,0.00,,,0.00,Wunderground v.1.15,2013-06-19 04:00:00,
2013-06-18 22:02:00,59.4,43.2,22.60,East,86,1.0,21.0,55,0.00,,,0.00,Wunderground v.1.15,2013-06-19 04:02:00,
2013-06-18 22:06:00,59.1,43.4,22.61,SSW,209,0.0,21.0,56,0.00,,,0.00,Wunderground v.1.15,2013-06-19 04:06:00,
2013-06-18 22:12:00,58.8,43.1,22.61,SSW,210,1.0,21.0,56,0.00,,,0.00,Wunderground v.1.15,2013-06-19 04:12:00,
2013-06-18 22:14:00,58.9,43.7,22.61,ENE,60,2.0,21.0,57,0.00,,,0.00,Wunderground v.1.15,2013-06-19 04:14:00,
2013-06-18 22:16:00,58.9,44.1,22.62,SSW,207,2.0,21.0,58,0.00,,,0.00,Wunderground v.1.15,2013-06-19 04:16:00,
2013-06-18 22:20:00,59.1,43.9,22.61,SW,215,3.0,21.0,57,0.00,,,0.00,Wunderground v.1.15,2013-06-19 04:20:00,
2013-06-18 22:22:00,59.1,43.4,22.61,WSW,250,3.0,21.0,56,0.00,,,0.00,Wunderground v.1.15,2013-06-19 04:22:00,
2013-06-18 22:24:00,59.2,44.0,22.60,ENE,77,3.0,21.0,57,0.00,,,0.00,Wunderground v.1.15,2013-06-19 04:24:00,
2013-06-18 22:28:00,59.0,44.7,22.58,NNW,338,3.0,21.0,59,0.00,,,0.00,Wunderground v.1.15,2013-06-19 04:28:00,
2013-06-18 22:30:00,58.9,44.1,22.58,NNW,333,3.0,21.0,58,0.00,,,0.00,Wunderground v.1.15,2013-06-19 04:30:00,
2013-06-18 22:34:00,58.8,43.6,22.58,NNW,345,3.0,21.0,57,0.00,,,0.00,Wunderground v.1.15,2013-06-19 04:34:00,
2013-06-18 22:36:00,59.0,43.3,22.58,East,81,3.0,21.0,56,0.00,,,0.00,Wunderground v.1.15,2013-06-19 04:36:00,
2013-06-18 22:38:00,59.1,42.9,22.58,SE,138,3.0,21.0,55,0.00,,,0.00,Wunderground v.1.15,2013-06-19 04:38:00,
2013-06-18 22:40:00,59.2,43.0,22.58,SSE,159,2.0,21.0,55,0.00,,,0.00,Wunderground v.1.15,2013-06-19 04:40:00,
2013-06-18 22:44:00,59.1,42.5,22.58,SSE,162,2.0,21.0,54,0.00,,,0.00,Wunderground v.1.15,2013-06-19 04:44:00,
2013-06-18 22:46:00,59.1,42.5,22.58,WSW,243,2.0,21.0,54,0.00,,,0.00,Wunderground v.1.15,2013-06-19 04:46:00,
2013-06-18 22:48:00,59.2,42.6,22.59,SW,214,2.0,21.0,54,0.00,,,0.00,Wunderground v.1.15,2013-06-19 04:48:00,
2013-06-18 22:52:00,59.3,42.6,22.59,WSW,246,3.0,3.0,54,0.00,,,0.00,Wunderground v.1.15,2013-06-19 04:52:00,
2013-06-18 22:54:00,59.3,42.2,22.59,West,273,3.0,21.0,53,0.00,,,0.00,Wunderground v.1.15,2013-06-19 04:54:00,
2013-06-18 22:58:00,59.2,42.6,22.60,WSW,249,2.0,21.0,54,0.00,,,0.00,Wunderground v.1.15,2013-06-19 04:58:00,
2013-06-18 23:00:00,59.0,42.4,22.60,WSW,249,1.0,21.0,54,0.00,,,0.00,Wunderground v.1.15,2013-06-19 05:00:00,
2013-06-18 23:02:00,58.6,42.5,22.60,WSW,249,1.0,21.0,55,0.00,,,0.00,Wunderground v.1.15,2013-06-19 05:02:00,
2013-06-18 23:06:00,57.9,42.8,22.60,NNW,329,1.0,21.0,57,0.00,,,0.00,Wunderground v.1.15,2013-06-19 05:06:00,
2013-06-18 23:08:00,57.5,42.8,22.60,NNW,329,1.0,21.0,58,0.00,,,0.00,Wunderground v.1.15,2013-06-19 05:08:00,
2013-06-18 23:10:00,57.2,43.0,22.60,SE,139,1.0,21.0,59,0.00,,,0.00,Wunderground v.1.15,2013-06-19 05:10:00,
2013-06-18 23:12:00,56.9,42.7,22.60,SSW,207,1.0,21.0,59,0.00,,,0.00,Wunderground v.1.15,2013-06-19 05:12:00,
2013-06-18 23:16:00,56.3,42.6,22.60,West,271,1.0,21.0,60,0.00,,,0.00,Wunderground v.1.15,2013-06-19 05:16:00,
2013-06-18 23:18:00,56.0,42.3,22.60,West,271,1.0,21.0,60,0.00,,,0.00,Wunderground v.1.15,2013-06-19 05:18:00,
2013-06-18 23:24:00,55.3,42.5,22.60,NW,320,1.0,21.0,62,0.00,,,0.00,Wunderground v.1.15,2013-06-19 05:24:00,
2013-06-18 23:26:00,55.1,42.3,22.60,WSW,256,1.0,21.0,62,0.00,,,0.00,Wunderground v.1.15,2013-06-19 05:26:00,
2013-06-18 23:28:00,54.9,42.1,22.60,WSW,257,1.0,21.0,62,0.00,,,0.00,Wunderground v.1.15,2013-06-19 05:28:00,
2013-06-18 23:30:00,54.7,41.9,22.60,West,262,1.0,21.0,62,0.00,,,0.00,Wunderground v.1.15,2013-06-19 05:30:00,
2013-06-18 23:32:00,54.7,41.9,22.60,WNW,294,1.0,1.0,62,0.00,,,0.00,Wunderground v.1.15,2013-06-19 05:32:00,
2013-06-18 23:36:00,54.3,41.6,22.60,WNW,294,1.0,21.0,62,0.00,,,0.00,Wunderground v.1.15,2013-06-19 05:36:00,
2013-06-18 23:38:00,54.3,42.0,22.60,WNW,288,1.0,21.0,63,0.00,,,0.00,Wunderground v.1.15,2013-06-19 05:38:00,
2013-06-18 23:40:00,54.2,41.9,22.60,WNW,288,0.0,21.0,63,0.00,,,0.00,Wunderground v.1.15,2013-06-19 05:40:00,
2013-06-18 23:42:00,54.1,41.8,22.60,WNW,288,0.0,21.0,63,0.00,,,0.00,Wunderground v.1.15,2013-06-19 05:42:00,
2013-06-18 23:44:00,53.9,41.6,22.60,WNW,288,0.0,21.0,63,0.00,,,0.00,Wunderground v.1.15,2013-06-19 05:44:00,
2013-06-18 23:46:00,53.7,41.4,22.60,WNW,288,0.0,21.0,63,0.00,,,0.00,Wunderground v.1.15,2013-06-19 05:46:00,
2013-06-18 23:48:00,53.4,41.5,22.60,WNW,288,0.0,21.0,64,0.00,,,0.00,Wunderground v.1.15,2013-06-19 05:48:00,
2013-06-18 23:50:00,53.3,41.4,22.60,WNW,288,0.0,21.0,64,0.00,,,0.00,Wunderground v.1.15,2013-06-19 05:50:00,
2013-06-18 23:52:00,53.2,41.7,22.60,WNW,288,0.0,21.0,65,0.00,,,0.00,Wunderground v.1.15,2013-06-19 05:52:00,
2013-06-18 23:54:00,53.1,41.6,22.60,WNW,288,0.0,21.0,65,0.00,,,0.00,Wunderground v.1.15,2013-06-19 05:54:00,
2013-06-18 23:58:00,52.7,41.3,22.60,WNW,288,0.0,21.0,65,0.00,,,0.00,Wunderground v.1.15,2013-06-19 05:58:00,